Regional Weather Roundup
Issued by NWS

Home | Current Version | Previous Version | Text Only | Print | Product List | Glossary On
Versions: 1 2 3 4 5 6 7 8 9 10 11 12 13 14 15 16 17 18 19 20 21 22 23 24 25 26
000
ASUS44 KBMX 261410
RWRAL

ALABAMA REGIONAL WEATHER ROUNDUP
NATIONAL WEATHER SERVICE BIRMINGHAM AL
900 AM CDT THU MAY 26 2016

NOTE: "FAIR" INDICATES FEW OR NO CLOUDS BELOW 12,000 FEET
WITH NO SIGNIFICANT WEATHER AND/OR OBSTRUCTIONS TO VISIBILITY.

THE REMARK "TC" DENOTES TEMPERATURE IN DEGREES CELSIUS.

ALZ001>011-014-016>018-020-261500-
NORTH ALABAMA

CITY           SKY/WX    TMP DP  RH WIND       PRES   REMARKS
MUSCLE SHOALS  SUNNY     78  62  57 S8        30.14S
HUNTSVILLE     MOSUNNY   80  59  48 S10       30.16S
DECATUR        SUNNY     77  62  59 SW6       30.16R
HALEYVILLE     CLOUDY    75  62  64 SW8       30.18S
GADSDEN        SUNNY     76  64  66 CALM      30.18F
$$

ALZ012-013-022-023-030>036-040>044-261500-
WEST CENTRAL ALABAMA

CITY           SKY/WX    TMP DP  RH WIND       PRES   REMARKS
TUSCALOOSA     SUNNY     76  64  66 S5        30.15F
$$

ALZ015-024>027-033>036-040>044-261500-
CENTRAL ALABAMA

CITY           SKY/WX    TMP DP  RH WIND       PRES   REMARKS
BIRMINGHAM     MOSUNNY   80  60  50 S7        30.19S
MONTGOMERY     SUNNY     80  68  66 SW5       30.17S
SHELBY CO ARPT SUNNY     75  63  66 S5        30.18S
MAXWELL AFB    SUNNY     79  68  69 VRB1      30.16F
GREENVILLE     CLOUDY    75  69  81 S5        30.17F
$$

ALZ019-021-028-029-037-038-045>048-261500-
EAST CENTRAL ALABAMA

CITY           SKY/WX    TMP DP  RH WIND       PRES   REMARKS
ANNISTON       SUNNY     77  62  59 E3        30.18F
ALEXANDER CITY SUNNY     75  69  81 CALM      30.20S
AUBURN         SUNNY    N/A N/A N/A CALM      30.21S
$$

ALZ051>064-261500-
SOUTHWEST ALABAMA

CITY           SKY/WX    TMP DP  RH WIND       PRES   REMARKS
MOBILE         CLOUDY    75  71  87 CALM      30.17R
BROOKLEY FIELD MOSUNNY   78  71  79 SE6       30.17R
EVERGREEN      CLOUDY    73  69  87 CALM      30.17F
$$

ALZ049-050-065>069-261500-
SOUTHEAST ALABAMA

CITY           SKY/WX    TMP DP  RH WIND       PRES   REMARKS
DOTHAN         SUNNY     80  66  62 S9        30.21F
OZARK          SUNNY     77  70  79 VRB3      30.18F
TROY           SUNNY     77  70  79 S8        30.19S
EUFAULA        FAIR      82  68  62 VRB6      30.18S
$$




USA.gov is the U.S. government's official web portal to all federal, state and local government web resources and services.